EW7670 Weather Reports


Display with metric or nautical units.
time (UTC)temp
F
wind
direction
speed
MPH
gust
MPH
rain 1hr
in
rain 24hr
in
rain mn
in
humidity
%
barometer
mb
20260506160032 74 208 11.0 19.0 0.00 0.00 0.00 80 1014.9
20260506154531 73 224 11.0 21.0 0.00 0.00 0.00 81 1014.7
20260506151655 73 211 14.0 22.0 0.00 0.00 0.00 82 1015.1
20260506143027 72 206 10.0 16.0 0.00 0.00 0.00 83 1015.1
20260506134544 72 203 11.0 16.0 0.00 0.00 0.00 81 1014.9
20260506133059 73 186 11.0 20.0 0.00 0.00 0.00 78 1014.8
20260506121637 70 183 12.0 20.0 0.00 0.00 0.00 78 1015.0
20260506104617 67 190 8.0 15.0 0.00 0.00 0.00 78 1015.0
20260506100045 66 206 9.0 16.0 0.00 0.00 0.00 82 1015.0
20260506093148 66 210 6.0 13.0 0.00 0.00 0.00 83 1015.2
20260506081638 67 190 9.0 16.0 0.00 0.00 0.00 81 1015.0
20260506070141 68 207 9.0 14.0 0.00 0.00 0.00 82 1015.2
20260506044530 68 171 9.0 21.0 0.00 0.00 0.00 77 1016.2
20260506043102 68 179 11.0 23.0 0.00 0.00 0.00 77 1016.4
20260506041555 68 161 11.0 22.0 0.00 0.00 0.00 77 1016.4
20260506040129 68 186 11.0 21.0 0.00 0.00 0.00 76 1016.4
20260506033135 68 200 12.0 24.0 0.00 0.00 0.00 77 1016.4
20260506021700 68 197 12.0 23.0 0.00 0.00 0.00 76 1016.8
20260506020021 68 183 11.0 23.0 0.00 0.00 0.00 77 1016.8
20260506013152 68 175 13.0 22.0 0.00 0.00 0.00 75 1016.7
20260506010118 69 194 15.0 30.0 0.00 0.00 0.00 77 1016.5
20260505234513 69 195 17.0 28.0 0.00 0.00 0.00 78 1015.7
20260505220040 70 213 11.0 20.0 0.00 0.00 0.00 79 1015.7
20260505211657 71 201 13.0 21.0 0.00 0.00 0.00 77 1015.4
20260505204614 71 214 11.0 20.0 0.00 0.00 0.00 77 1015.8
20260505194655 71 236 11.0 19.0 0.00 0.00 0.00 77 1016.3
20260505193106 71 210 11.0 18.0 0.00 0.00 0.00 79 1016.5
20260505183150 71 217 10.0 16.0 0.00 0.00 0.00 79 1016.7
20260505180155 71 208 10.0 16.0 0.00 0.00 0.00 78 1016.9
20260505171516 71 212 10.0 15.0 0.00 0.00 0.00 73 1017.0
20260505170014 71 237 8.0 13.0 0.00 0.00 0.00 74 1017.3
20260505163142 70 210 8.0 13.0 0.00 0.00 0.00 74 1017.3